This is the latest recevied weather packets stored in our database for station/object KC4GS-13. If no packets are shown the sender has not sent any weather packets the latest 10 day(s).
| Time | Temp. | Humidity | Pressure | Rain* | Wind** | Luminosity | Snow |
|---|---|---|---|---|---|---|---|
| 1777858450 | 13.89° C | 72% | 1018.7 hPa | 0 mm | - | 0 W/m² | - |
| 1777858145 | 13.89° C | 72% | 1018.3 hPa | 0 mm | - | 0 W/m² | - |
| 1777857843 | 14.44° C | 71% | 1018.3 hPa | 0 mm | - | 0 W/m² | - |
| 1777857540 | 14.44° C | 70% | 1018 hPa | 0 mm | - | 0 W/m² | - |
| 1777857237 | 14.44° C | 69% | 1018.1 hPa | 0 mm | - | 0 W/m² | - |
| 1777856933 | 15° C | 67% | 1018.2 hPa | 0 mm | - | 0 W/m² | - |
| 1777856628 | 15° C | 66% | 1017.8 hPa | 0 mm | - | 0 W/m² | - |
| 1777856326 | 15.56° C | 66% | 1017.8 hPa | 0 mm | - | 0 W/m² | - |
| 1777856022 | 15.56° C | 64% | 1017.9 hPa | 0 mm | - | 0 W/m² | - |
| 1777855720 | 15.56° C | 65% | 1017.8 hPa | 0 mm | - | 0 W/m² | - |
| 1777855418 | 16.11° C | 64% | 1017.7 hPa | 0 mm | - | 0 W/m² | - |
| 1777855114 | 16.11° C | 63% | 1017.7 hPa | 0 mm | - | 0 W/m² | - |
| 1777854811 | 16.67° C | 60% | 1017.5 hPa | 0 mm | - | 0 W/m² | - |
| 1777854507 | 16.67° C | 61% | 1017.6 hPa | 0 mm | - | 0 W/m² | - |
| 1777854204 | 17.22° C | 60% | 1017.6 hPa | 0 mm | - | 0 W/m² | - |
| 1777853902 | 17.78° C | 60% | 1017.4 hPa | 0 mm | - | 0 W/m² | - |
| 1777853599 | 17.78° C | 60% | 1017.7 hPa | 0 mm | - | 2 W/m² | - |
| 1777853296 | 18.33° C | 57% | 1017.4 hPa | 0 mm | - | 3 W/m² | - |
| 1777852993 | 18.89° C | 56% | 1017.5 hPa | 0 mm | - | 5 W/m² | - |
| 1777852690 | 18.89° C | 51% | 1017.4 hPa | 0 mm | - | 7 W/m² | - |
| 1777852388 | 19.44° C | 49% | 1017.3 hPa | 0 mm | - | 10 W/m² | - |
| 1777852085 | 19.44° C | 48% | 1017.6 hPa | 0 mm | - | 11 W/m² | - |
| 1777851783 | 20° C | 44% | 1017.3 hPa | 0 mm | - | 15 W/m² | - |
| 1777851481 | 20° C | 45% | 1017.4 hPa | 0 mm | - | 16 W/m² | - |
| 1777851175 | 20° C | 43% | 1017.2 hPa | 0 mm | - | 19 W/m² | - |
* Rain latest hour (hover to see other rain measurements)
** Current wind speed in m/s (hover to see current wind gust speed)